Time,TemperatureF,DewpointF,PressureIn,WindDirection,WindDirectionDegrees,WindSpeedMPH,WindSpeedGustMPH,Humidity,HourlyPrecipIn,Conditions,Clouds,dailyrainin,SolarRadiationWatts/m^2,SoftwareType,DateUTC
2013-03-23 08:00:00,32.0,-51.0,3.43,NE,45,15.0,-999.0,0,-99.99,,,-99.99,58.220001,,2013-03-23 14:00:00,
2013-03-23 08:53:00,32.0,-51.0,3.43,NE,45,15.0,-999.0,0,-99.99,,,-99.99,58.220001,,2013-03-23 14:53:00,
2013-03-23 09:00:00,26.0,26.0,29.97,NNE,26,16.0,-999.0,100,-99.99,,,-99.99,109.599998,,2013-03-23 15:00:00,
2013-03-23 09:53:00,26.0,26.0,29.97,NNE,26,16.0,-999.0,100,-99.99,,,-99.99,109.599998,,2013-03-23 15:53:00,
2013-03-23 10:00:00,25.0,23.0,29.99,NNE,27,17.0,-999.0,94,-99.99,,,-99.99,171.899994,,2013-03-23 16:00:00,
2013-03-23 10:53:00,25.0,23.0,29.99,NNE,27,17.0,-999.0,94,-99.99,,,-99.99,171.899994,,2013-03-23 16:53:00,
2013-03-23 11:00:00,22.0,21.0,30.00,North,0,22.0,-999.0,95,-99.99,,,-99.99,258.500000,,2013-03-23 17:00:00,
2013-03-23 11:53:00,22.0,21.0,30.00,North,0,22.0,-999.0,95,-99.99,,,-99.99,258.500000,,2013-03-23 17:53:00,
2013-03-23 12:00:00,21.0,20.0,30.02,North,356,22.0,-999.0,94,-99.99,,,-99.99,286.299988,,2013-03-23 18:00:00,
2013-03-23 12:53:00,21.0,20.0,30.02,North,356,22.0,-999.0,94,-99.99,,,-99.99,286.299988,,2013-03-23 18:53:00,
2013-03-23 13:00:00,22.0,21.0,30.03,NNW,348,21.0,-999.0,95,-99.99,,,-99.99,281.799988,,2013-03-23 19:00:00,
2013-03-23 13:53:00,22.0,21.0,30.03,NNW,348,21.0,-999.0,95,-99.99,,,-99.99,281.799988,,2013-03-23 19:53:00,
2013-03-23 14:00:00,22.0,20.0,30.03,NNW,344,21.0,-999.0,94,-99.99,,,-99.99,294.000000,,2013-03-23 20:00:00,
2013-03-23 14:53:00,22.0,20.0,30.03,NNW,344,21.0,-999.0,94,-99.99,,,-99.99,294.000000,,2013-03-23 20:53:00,
2013-03-23 15:00:00,22.0,20.0,30.04,NNW,339,20.0,-999.0,93,-99.99,,,-99.99,314.600006,,2013-03-23 21:00:00,
2013-03-23 15:54:00,22.0,20.0,30.04,NNW,339,20.0,-999.0,93,-99.99,,,-99.99,314.600006,,2013-03-23 21:54:00,
2013-03-23 16:00:00,23.0,21.0,30.05,NNW,338,20.0,-999.0,93,-99.99,,,-99.99,311.600006,,2013-03-23 22:00:00,
2013-03-23 16:53:00,23.0,21.0,30.05,NNW,338,20.0,-999.0,93,-99.99,,,-99.99,311.600006,,2013-03-23 22:53:00,
2013-03-23 17:00:00,23.0,21.0,30.06,NNW,336,19.0,-999.0,92,-99.99,,,-99.99,227.899994,,2013-03-23 23:00:00,
2013-03-23 17:52:00,23.0,21.0,30.06,NNW,336,19.0,-999.0,92,-99.99,,,-99.99,227.899994,,2013-03-23 23:52:00,
2013-03-23 18:00:00,32.0,-99.9,3.43,NNW,341,15.0,-999.0,0,-99.99,,,-99.99,95.400002,,2013-03-24 00:00:00,
2013-03-23 18:53:00,32.0,-99.9,3.43,NNW,341,15.0,-999.0,0,-99.99,,,-99.99,95.400002,,2013-03-24 00:53:00,